When you browse on this site, cookies collect data to enhance your experience and personalize the content and advertising you see.
Visit our Privacy Policy to learn more. By continuing to use the site, you agree to this use of cookies and data.
  • In Austria
  • List of Countries
  • For 7 days
  • Water Temperature
  • Satellite Maps
  • Weather Map
  • News
  • Weather Widgets
  • user-avatar
    Login

    Hourly Weather Andon

    Today, 21 May, Tuesday

    Time Temperature Precipitation Wind Pressure Humidity
    00:00 +8°C° 0 mm 2 mps 743 mmHg 77%
    01:00 +9°C° 0 mm 1 mps 743 mmHg 80%
    02:00 +9°C° 0 mm 1 mps 743 mmHg 82%
    03:00 +8°C° 0 mm 1 mps 743 mmHg 84%
    04:00 +8°C° 0 mm 1 mps 743 mmHg 84%
    05:00 +8°C° 0 mm 1 mps 743 mmHg 84%
    06:00 +7°C° 0 mm 0 mps 743 mmHg 84%
    07:00 +11°C° 0 mm 1 mps 743 mmHg 73%
    08:00 +14°C° 0 mm 2 mps 742 mmHg 63%
    09:00 +17°C° 0 mm 2 mps 743 mmHg 51%
    10:00 +19°C° 0 mm 3 mps 742 mmHg 45%
    11:00 +21°C° 0 mm 4 mps 742 mmHg 40%
    12:00 +22°C° 0 mm 5 mps 742 mmHg 34%
    13:00 +23°C° 0 mm 5 mps 742 mmHg 32%
    14:00 +24°C° 0 mm 6 mps 741 mmHg 31%
    15:00 +25°C° 0 mm 5 mps 740 mmHg 29%
    16:00 +25°C° 0 mm 4 mps 741 mmHg 34%
    17:00 +23°C° 0 mm 4 mps 741 mmHg 39%
    18:00 +22°C° 0 mm 3 mps 741 mmHg 44%
    19:00 +19°C° 0 mm 3 mps 741 mmHg 50%
    20:00 +17°C° 0 mm 2 mps 741 mmHg 55%
    21:00 +14°C° 0 mm 2 mps 741 mmHg 60%
    22:00 +13°C° 0 mm 1 mps 742 mmHg 65%
    23:00 +12°C° 0 mm 1 mps 742 mmHg 71%

    Tomorrow, 22 May, Wednesday

    Time Temperature Precipitation Wind Pressure Humidity
    00:00 +11°C° 0 mm 1 mps 742 mmHg 76%
    01:00 +11°C° 0 mm 1 mps 742 mmHg 80%
    02:00 +9°C° 0 mm 0 mps 742 mmHg 84%
    03:00 +9°C° 0 mm 0 mps 742 mmHg 88%
    04:00 +9°C° 0 mm 0 mps 742 mmHg 88%
    05:00 +9°C° 0 mm 0 mps 742 mmHg 88%
    06:00 +9°C° 0 mm 0 mps 742 mmHg 88%
    07:00 +13°C° 0 mm 1 mps 742 mmHg 75%
    08:00 +16°C° 0 mm 1 mps 742 mmHg 63%
    09:00 +20°C° 0 mm 1 mps 742 mmHg 51%
    10:00 +21°C° 0 mm 2 mps 742 mmHg 44%
    11:00 +24°C° 0 mm 3 mps 742 mmHg 37%
    12:00 +26°C° 0 mm 4 mps 742 mmHg 30%
    13:00 +27°C° 0 mm 5 mps 742 mmHg 30%
    14:00 +27°C° 0 mm 5 mps 742 mmHg 29%
    15:00 +28°C° 0 mm 6 mps 742 mmHg 28%
    16:00 +27°C° 0 mm 5 mps 742 mmHg 33%
    17:00 +26°C° 0 mm 4 mps 741 mmHg 39%
    18:00 +25°C° 0 mm 3 mps 741 mmHg 44%
    19:00 +21°C° 0 mm 2 mps 742 mmHg 48%
    20:00 +19°C° 0 mm 2 mps 742 mmHg 53%
    21:00 +16°C° 0 mm 1 mps 742 mmHg 58%
    22:00 +15°C° 0 mm 1 mps 742 mmHg 62%
    23:00 +14°C° 0 mm 1 mps 743 mmHg 66%

    Day after tomorrow, 23 May, Thursday

    Time Temperature Precipitation Wind Pressure Humidity
    00:00 +12°C° 0 mm 0 mps 743 mmHg 69%
    01:00 +12°C° 0 mm 0 mps 743 mmHg 71%
    02:00 +12°C° 0 mm 0 mps 743 mmHg 74%
    03:00 +11°C° 0 mm 0 mps 743 mmHg 76%
    04:00 +11°C° 0 mm 0 mps 743 mmHg 78%
    05:00 +11°C° 0 mm 0 mps 743 mmHg 80%
    06:00 +11°C° 0 mm 0 mps 744 mmHg 82%
    07:00 +14°C° 0 mm 0 mps 744 mmHg 72%
    08:00 +20°C° 0 mm 1 mps 744 mmHg 63%
    09:00 +23°C° 0 mm 1 mps 745 mmHg 53%
    10:00 +24°C° 0 mm 1 mps 745 mmHg 46%
    11:00 +26°C° 0 mm 2 mps 745 mmHg 39%
    12:00 +28°C° 0 mm 3 mps 745 mmHg 32%
    13:00 +29°C° 0 mm 3 mps 744 mmHg 29%
    14:00 +29°C° 0 mm 3 mps 744 mmHg 27%
    15:00 +30°C° 0 mm 4 mps 744 mmHg 25%
    16:00 +29°C° 0 mm 3 mps 744 mmHg 31%
    17:00 +28°C° 0 mm 2 mps 744 mmHg 37%
    18:00 +27°C° 0 mm 2 mps 744 mmHg 43%
    19:00 +25°C° 0 mm 1 mps 744 mmHg 48%
    20:00 +22°C° 0 mm 1 mps 744 mmHg 52%
    21:00 +17°C° 0 mm 0 mps 745 mmHg 56%
    22:00 +17°C° 0 mm 0 mps 745 mmHg 58%
    23:00 +16°C° 0 mm 0 mps 745 mmHg 60%

    24 May, Friday

    Time Temperature Precipitation Wind Pressure Humidity
    00:00 +15°C° 0 mm 0 mps 745 mmHg 62%
    01:00 +15°C° 0 mm 0 mps 745 mmHg 64%
    02:00 +14°C° 0 mm 0 mps 745 mmHg 65%
    03:00 +14°C° 0 mm 0 mps 745 mmHg 67%
    04:00 +14°C° 0 mm 0 mps 745 mmHg 68%
    05:00 +14°C° 0 mm 0 mps 745 mmHg 69%
    06:00 +14°C° 0 mm 0 mps 745 mmHg 70%
    07:00 +17°C° 0 mm 0 mps 746 mmHg 62%
    08:00 +22°C° 0 mm 1 mps 746 mmHg 53%
    09:00 +26°C° 0 mm 1 mps 746 mmHg 45%
    10:00 +28°C° 0 mm 1 mps 746 mmHg 41%
    11:00 +29°C° 0 mm 2 mps 746 mmHg 37%
    12:00 +31°C° 0 mm 2 mps 746 mmHg 34%
    13:00 +32°C° 0 mm 2 mps 745 mmHg 33%
    14:00 +34°C° 0 mm 3 mps 745 mmHg 32%
    15:00 +35°C° 0 mm 3 mps 744 mmHg 31%
    16:00 +34°C° 0 mm 3 mps 744 mmHg 38%
    17:00 +33°C° 0 mm 3 mps 744 mmHg 44%
    18:00 +31°C° 0 mm 2 mps 744 mmHg 51%
    19:00 +28°C° 0 mm 2 mps 745 mmHg 58%
    20:00 +25°C° 0 mm 2 mps 745 mmHg 66%
    21:00 +22°C° 0 mm 1 mps 745 mmHg 73%
    22:00 +21°C° 0 mm 1 mps 745 mmHg 77%
    23:00 +20°C° 0 mm 1 mps 746 mmHg 81%

    25 May, Saturday

    Time Temperature Precipitation Wind Pressure Humidity
    00:00 +19°C° 0 mm 1 mps 746 mmHg 84%
    01:00 +18°C° 0 mm 1 mps 746 mmHg 86%
    02:00 +16°C° 0 mm 1 mps 746 mmHg 88%
    03:00 +16°C° 0 mm 1 mps 746 mmHg 90%
    04:00 +16°C° 0 mm 1 mps 746 mmHg 89%
    05:00 +16°C° 0 mm 1 mps 746 mmHg 87%
    06:00 +16°C° 0 mm 1 mps 747 mmHg 86%
    07:00 +20°C° 0 mm 1 mps 747 mmHg 74%
    08:00 +23°C° 0 mm 1 mps 748 mmHg 63%
    09:00 +25°C° 0 mm 1 mps 748 mmHg 51%
    10:00 +28°C° 0 mm 2 mps 748 mmHg 43%
    11:00 +30°C° 0 mm 2 mps 748 mmHg 35%
    12:00 +34°C° 0 mm 2 mps 748 mmHg 27%
    13:00 +34°C° 0 mm 3 mps 748 mmHg 27%
    14:00 +35°C° 0 mm 3 mps 748 mmHg 26%
    15:00 +35°C° 0 mm 3 mps 748 mmHg 26%
    16:00 +33°C° 0 mm 3 mps 748 mmHg 34%
    17:00 +31°C° 0 mm 2 mps 748 mmHg 42%
    18:00 +29°C° 0 mm 2 mps 748 mmHg 50%
    19:00 +27°C° 0 mm 1 mps 748 mmHg 53%
    20:00 +25°C° 0 mm 1 mps 748 mmHg 56%
    21:00 +21°C° 0 mm 0 mps 748 mmHg 60%
    22:00 +21°C° 0 mm 0 mps 748 mmHg 60%
    23:00 +22°C° 0 mm 1 mps 748 mmHg 61%

    26 May, Sunday

    Time Temperature Precipitation Wind Pressure Humidity
    00:00 +22°C° 0 mm 1 mps 748 mmHg 61%
    01:00 +22°C° 0 mm 1 mps 748 mmHg 60%
    02:00 +19°C° 0 mm 0 mps 748 mmHg 59%
    03:00 +19°C° 0 mm 0 mps 748 mmHg 58%
    04:00 +21°C° 0 mm 1 mps 748 mmHg 58%
    05:00 +21°C° 0 mm 1 mps 748 mmHg 58%
    06:00 +21°C° 0 mm 1 mps 748 mmHg 58%
    07:00 +23°C° 0 mm 1 mps 748 mmHg 55%
    08:00 +25°C° 0 mm 1 mps 748 mmHg 53%
    09:00 +26°C° 0 mm 1 mps 749 mmHg 51%
    10:00 +28°C° 0 mm 2 mps 748 mmHg 45%
    11:00 +30°C° 0 mm 2 mps 748 mmHg 40%
    12:00 +33°C° 0 mm 3 mps 748 mmHg 35%
    13:00 +33°C° 0 mm 4 mps 748 mmHg 33%
    14:00 +32°C° 0 mm 5 mps 747 mmHg 31%
    15:00 +32°C° 0 mm 5 mps 747 mmHg 30%
    16:00 +29°C° 0 mm 4 mps 747 mmHg 37%
    17:00 +27°C° 0 mm 3 mps 747 mmHg 44%
    18:00 +25°C° 0 mm 2 mps 747 mmHg 51%
    19:00 +24°C° 0 mm 2 mps 747 mmHg 54%
    20:00 +23°C° 0 mm 1 mps 747 mmHg 57%
    21:00 +21°C° 0 mm 1 mps 748 mmHg 60%
    22:00 +21°C° 0 mm 1 mps 747 mmHg 66%
    23:00 +20°C° 0 mm 1 mps 747 mmHg 73%
    Show more